TimeMST,TemperatureF,Dew PointF,Humidity,Sea Level PressureIn,VisibilityMPH,Wind Direction,Wind SpeedMPH,Gust SpeedMPH,PrecipitationIn,Events,Conditions,WindDirDegrees,DateUTC
12:53 AM,-0.9,-9.0,69,30.17,10.0,WNW,9.2,-,N/A,,Clear,290,2014-02-08 07:53:00
1:53 AM,-5.1,-11.0,76,30.19,10.0,WNW,5.8,-,N/A,,Clear,290,2014-02-08 08:53:00
2:53 AM,-6.0,-11.0,79,30.20,10.0,WSW,9.2,-,N/A,,Clear,240,2014-02-08 09:53:00
3:53 AM,-8.0,-13.0,79,30.21,10.0,West,6.9,-,N/A,,Partly Cloudy,260,2014-02-08 10:53:00
4:10 AM,-7.1,-11.9,79,30.01,10.0,WSW,6.9,-,N/A,,Mostly Cloudy,250,2014-02-08 11:10:00
4:53 AM,-9.0,-14.1,79,30.24,10.0,WSW,8.1,-,N/A,,Partly Cloudy,250,2014-02-08 11:53:00
5:53 AM,-11.9,-17.0,78,30.29,10.0,SW,9.2,-,N/A,,Clear,230,2014-02-08 12:53:00
6:53 AM,-11.9,-17.0,78,30.33,10.0,SW,10.4,-,N/A,,Clear,220,2014-02-08 13:53:00
7:53 AM,-14.1,-18.9,79,30.36,10.0,SW,8.1,-,N/A,,Clear,220,2014-02-08 14:53:00
8:31 AM,-11.0,-17.0,75,30.15,10.0,SW,6.9,-,N/A,,Mostly Cloudy,220,2014-02-08 15:31:00
8:53 AM,-9.9,-15.0,78,30.38,10.0,SW,5.8,-,N/A,,Mostly Cloudy,220,2014-02-08 15:53:00
9:09 AM,-9.0,-14.1,79,30.18,10.0,SW,6.9,-,N/A,,Overcast,220,2014-02-08 16:09:00
9:53 AM,-2.0,-8.0,76,30.39,9.0,SW,8.1,-,N/A,,Overcast,230,2014-02-08 16:53:00
10:38 AM,-0.9,-7.1,75,30.22,7.0,SW,11.5,-,N/A,,Mostly Cloudy,220,2014-02-08 17:38:00
10:53 AM,-0.0,-7.1,72,30.42,8.0,SW,12.7,-,N/A,,Overcast,230,2014-02-08 17:53:00
11:53 AM,1.9,-6.0,69,30.43,7.0,SW,13.8,-,N/A,,Overcast,230,2014-02-08 18:53:00
12:53 PM,3.9,-4.0,70,30.42,10.0,SW,12.7,-,N/A,,Overcast,230,2014-02-08 19:53:00
1:19 PM,3.9,-4.0,70,30.24,10.0,SW,11.5,-,N/A,,Scattered Clouds,230,2014-02-08 20:19:00
1:37 PM,5.0,-2.9,70,30.24,10.0,SW,10.4,-,N/A,,Mostly Cloudy,230,2014-02-08 20:37:00
1:53 PM,5.0,-4.0,66,30.44,10.0,SW,11.5,-,N/A,,Overcast,220,2014-02-08 20:53:00
2:53 PM,7.0,-0.9,70,30.45,10.0,WSW,11.5,-,N/A,,Overcast,240,2014-02-08 21:53:00
3:53 PM,8.1,-2.0,64,30.47,10.0,WNW,8.1,-,N/A,,Scattered Clouds,300,2014-02-08 22:53:00
4:53 PM,6.1,-2.9,67,30.48,10.0,NW,10.4,-,N/A,,Clear,310,2014-02-08 23:53:00
5:53 PM,-2.0,-8.0,76,30.53,10.0,WSW,6.9,-,N/A,,Clear,250,2014-02-09 00:53:00
6:53 PM,-8.0,-11.0,86,30.56,10.0,WSW,10.4,-,N/A,,Clear,240,2014-02-09 01:53:00
7:53 PM,-8.0,-11.9,83,30.56,10.0,SW,4.6,-,N/A,,Clear,230,2014-02-09 02:53:00
8:53 PM,-11.9,-16.1,82,30.55,10.0,WSW,4.6,-,N/A,,Clear,250,2014-02-09 03:53:00
9:53 PM,-11.0,-16.1,78,30.53,10.0,SW,6.9,-,N/A,,Clear,230,2014-02-09 04:53:00
10:53 PM,-11.0,-15.0,83,30.53,10.0,SW,5.8,-,N/A,,Clear,220,2014-02-09 05:53:00
11:53 PM,-14.1,-18.9,79,30.53,10.0,NW,3.5,-,N/A,,Clear,310,2014-02-09 06:53:00